Weather History for Hayward, WI

Change the Weather History Date:

Tuesday, December 31, 2013

  Actual Average Record
Temperature  
Mean Temperature -15 °F -  
Max Temperature -4 °F 22 °F 44 °F (2004)
Min Temperature -26 °F -3 °F -26 °F (2013)
Degree Days  
Heating Degree Days 80    
Moisture  
Dew Point -23 °F    
Average Humidity 71    
Maximum Humidity 78    
Minimum Humidity 56    
Precipitation  
Precipitation 0.00 in - - ()
Sea Level Pressure  
Sea Level Pressure 30.36 in    
Wind  
Wind Speed 1 mph (NW)    
Max Wind Speed 6 mph    
Max Gust Speed -    
Visibility 10 miles    
Events      
Averages and records for this station are not official NWS values.
T = Trace of Precipitation, MM = Missing Value Source: NWS Daily Summary

Daily Weather History Graph

Daily Weather History Graph

Search for Another Location

Airport:

Trip Planner

Search our weather history database for the weather conditions in past years. The results will help you decide how hot, cold, wet, or windy it might be!

Date:

Astronomy

Dec. 31, 2013 Rise Set
Actual Time 7:47 AM CST 4:30 PM CST
Civil Twilight 7:13 AM CST 5:04 PM CST
Nautical Twilight 6:35 AM CST 5:42 PM CST
Astronomical Twilight 5:59 AM CST 6:19 PM CST
Moon 6:38 AM CST (12/31) 4:09 PM CST (12/31)
Length of Visible Light 9h 51m
Length of Day
8h 42m
Waning Crescent, 1% of the Moon is Illuminated
Dec 31
Waning Crescent
Jan 1
New
Jan 7
First Quarter
Jan 15
Full
Jan 23
Last Quarter

Hourly Weather History & Observations

Time (CST) Temp. Windchill Dew Point Humidity Pressure Visibility Wind Dir Wind Speed Gust Speed Precip Events Conditions
12:53 AM -9.9 °F - -15.0 °F 78% 30.22 in 7.0 mi Calm Calm - N/A   Overcast
1:53 AM -9.9 °F - -16.1 °F 74% 30.22 in 9.0 mi Calm Calm - N/A   Overcast
2:53 AM -11.9 °F - -17.0 °F 78% 30.24 in 9.0 mi Calm Calm - N/A   Overcast
3:53 AM -15.0 °F - -20.0 °F 78% 30.24 in 10.0 mi Calm Calm - N/A   Overcast
4:53 AM -17.0 °F - -24.0 °F 70% 30.25 in 10.0 mi Calm Calm - N/A   Clear
5:53 AM -20.9 °F - -27.0 °F 73% 30.27 in 9.0 mi Calm Calm - N/A   Clear
6:53 AM -23.1 °F - -29.0 °F 74% 30.28 in 10.0 mi Calm Calm - N/A   Clear
7:53 AM -26.0 °F - -32.1 °F 73% 30.30 in 10.0 mi Calm Calm - N/A   Clear
8:53 AM -20.9 °F - -26.0 °F 77% 30.31 in 10.0 mi Calm Calm - N/A   Clear
9:53 AM -11.9 °F -21.5 °F -17.0 °F 78% 30.33 in 10.0 mi Variable 3.5 mph - N/A   Clear
10:53 AM -9.0 °F -22.3 °F -16.1 °F 71% 30.35 in 10.0 mi West 5.8 mph - N/A   Clear
11:53 AM -8.0 °F - -16.1 °F 68% 30.35 in 10.0 mi Calm Calm - N/A   Clear
12:53 PM -6.0 °F -16.9 °F -16.1 °F 62% 30.36 in 10.0 mi Variable 4.6 mph - N/A   Clear
1:53 PM -5.1 °F -17.6 °F -16.1 °F 59% 30.35 in 10.0 mi West 5.8 mph - N/A   Clear
2:53 PM -4.0 °F -12.4 °F -16.1 °F 56% 30.37 in 10.0 mi Variable 3.5 mph - N/A   Clear
3:53 PM -6.0 °F - -17.0 °F 59% 30.39 in 10.0 mi Calm Calm - N/A   Clear
4:53 PM -9.0 °F - -18.9 °F 62% 30.41 in 10.0 mi Calm Calm - N/A   Clear
5:53 PM -17.0 °F - -22.0 °F 78% 30.44 in 10.0 mi Calm Calm - N/A   Clear
6:53 PM -22.0 °F - -27.9 °F 74% 30.49 in 10.0 mi Calm Calm - N/A   Clear
7:53 PM -24.0 °F - -29.9 °F 74% 30.51 in 10.0 mi Calm Calm - N/A   Clear
8:53 PM -26.0 °F - -31.0 °F 77% 30.51 in 8.0 mi Calm Calm - N/A   Clear
9:53 PM -25.1 °F - -29.9 °F 78% 30.49 in 10.0 mi Calm Calm - N/A   Clear
10:53 PM -26.0 °F - -32.1 °F 73% 30.52 in 10.0 mi Calm Calm - N/A   Clear
11:53 PM -20.9 °F -31.7 °F -27.9 °F 70% 30.50 in 10.0 mi NNE 3.5 mph - N/A   Clear